Carnival Splendor — 3EUS — position and weather

sailwx.info

Track history (hours):
 
Tides and Currents Weather Stations Pressure Air Temp Water Temp Dewpoint Dewpoint Depression Visibility Wind Speed Wind Dir Waves Ship Positions

Carnival Splendor

Last reported at 2015-Aug-28 16:27 UTC. Time now 2015-Aug-28 17:12 UTC.
Position N 40°45' W 068°20'.

Length 289 m; draft 8.3 m.

Type: Ship. MMSI: 372808000.

Date/timePositionNaut miles runAvg speedWind from/ knotsBaromVisibWave heightAir tempDewpointWater temp
2015-Aug-28 16:27N 40°45' W 068°20'30518.1
2015-Aug-27 23:33N 44°21' W 063°28'1514.6
2015-Aug-27 22:33N 44°35' W 063°32'3 3.2
2015-Aug-27 21:32N 44°38' W 063°34'0 0.0
2015-Aug-27 20:26N 44°38' W 063°34'0 0.0
2015-Aug-27 19:31N 44°38' W 063°34'0 0.0
2015-Aug-27 18:28N 44°38' W 063°34'0 0.0
2015-Aug-27 17:33N 44°38' W 063°34'0 0.0
2015-Aug-27 16:30N 44°38' W 063°34'0 0.0
2015-Aug-27 15:33N 44°38' W 063°34'0 0.0
2015-Aug-27 14:33N 44°38' W 063°34'0 0.0
2015-Aug-27 13:33N 44°38' W 063°34'1 0.7
2015-Aug-27 12:33N 44°38' W 063°33'10 9.9
2015-Aug-27 11:33N 44°29' W 063°28'1413.8
2015-Aug-27 10:33N 44°15' W 063°32'251 6.1
2015-Aug-25 17:27N 41°14' W 067°28'1415.1
2015-Aug-25 16:33N 41°06' W 067°43'1815.4
2015-Aug-25 15:22N 40°55' W 068°02'1615.8
2015-Aug-25 14:20N 40°46' W 068°20'1215.9
2015-Aug-25 13:33N 40°39' W 068°33'1716.5
2015-Aug-25 12:33N 40°33' W 068°54'1616.5
2015-Aug-25 11:33N 40°27' W 069°14'1616.5
2015-Aug-25 10:33N 40°26' W 069°35'1616.2
2015-Aug-25 09:33N 40°25' W 069°57'1615.9
2015-Aug-25 08:33N 40°25' W 070°18'1615.8
2015-Aug-25 07:33N 40°25' W 070°38'1616.0
2015-Aug-25 06:34N 40°24' W 070°59'1616.3
2015-Aug-25 05:33N 40°24' W 071°21'1616.3
2015-Aug-25 04:34N 40°23' W 071°42'1616.1
2015-Aug-25 03:34N 40°23' W 072°03'1616.2
2015-Aug-25 02:33N 40°23' W 072°24'1616.2
2015-Aug-25 01:33N 40°22' W 072°46'1615.9
2015-Aug-25 00:33N 40°22' W 073°07'1616.0
2015-Aug-24 23:34N 40°24' W 073°27'1615.5
2015-Aug-24 22:33N 40°27' W 073°47'1313.1
2015-Aug-24 21:34N 40°34' W 074°02'1212.0
2015-Aug-24 20:33N 40°46' W 074°01'1 0.6
2015-Aug-24 19:31N 40°46' W 073°60'0 0.0
2015-Aug-24 18:31N 40°46' W 073°60'0 0.0
2015-Aug-24 17:33N 40°46' W 073°60'0 0.0
2015-Aug-24 16:33N 40°46' W 073°60'0 0.0
2015-Aug-24 15:32N 40°46' W 073°60'0 0.0
2015-Aug-24 14:32N 40°46' W 073°60'0 0.0
2015-Aug-24 13:32N 40°46' W 073°60'0 0.0
2015-Aug-24 12:32N 40°46' W 073°60'0 0.0
2015-Aug-24 11:31N 40°46' W 073°60'1 1.1
2015-Aug-24 10:33N 40°45' W 074°01'1010.1
2015-Aug-24 09:33N 40°35' W 074°02'1313.2
2015-Aug-24 08:33N 40°27' W 073°48'1312.2
2015-Aug-24 07:30N 40°28' W 073°32'2215.5
2015-Aug-24 06:07N 40°30' W 073°03'915.9
2015-Aug-24 05:32N 40°30' W 072°51'1717.3
2015-Aug-24 04:33N 40°30' W 072°29'1919.0
2015-Aug-24 03:33N 40°31' W 072°04'1919.1
2015-Aug-24 02:34N 40°31' W 071°39'1919.1
2015-Aug-24 01:33N 40°32' W 071°14'1919.1
2015-Aug-24 00:33N 40°32' W 070°49'1919.1
2015-Aug-23 23:33N 40°33' W 070°24'1918.6
2015-Aug-23 22:32N 40°33' W 069°58'1918.5
2015-Aug-23 21:29N 40°34' W 069°33'1616.7
2015-Aug-23 20:31N 40°35' W 069°12'1515.5
2015-Aug-23 19:32N 40°37' W 068°52'1616.0
2015-Aug-23 18:33N 40°40' W 068°31'1715.7
2015-Aug-23 17:27N 40°50' W 068°13'39 0.8
2015-Aug-21 18:12N 41°12' W 067°31'1016.1
2015-Aug-21 17:33N 41°06' W 067°42'1615.9
2015-Aug-21 16:34N 40°57' W 067°59'1715.7
2015-Aug-21 15:27N 40°47' W 068°18'1415.2
2015-Aug-21 14:34N 40°39' W 068°32'1615.1
2015-Aug-21 13:31N 40°33' W 068°52'1515.4
2015-Aug-21 12:33N 40°28' W 069°10'1515.5
2015-Aug-21 11:34N 40°26' W 069°30'1615.7
2015-Aug-21 10:33N 40°25' W 069°51'1615.8
2015-Aug-21 09:33N 40°25' W 070°11'1615.9
2015-Aug-21 08:33N 40°25' W 070°32'1615.6
2015-Aug-21 07:33N 40°24' W 070°53'1616.0
2015-Aug-21 06:33N 40°24' W 071°14'1615.8
2015-Aug-21 05:33N 40°24' W 071°34'1615.7
2015-Aug-21 04:34N 40°24' W 071°55'1615.7
2015-Aug-21 03:33N 40°23' W 072°16'1615.8
2015-Aug-21 02:33N 40°22' W 072°36'1515.5
2015-Aug-21 01:33N 40°22' W 072°57'1515.2
2015-Aug-21 00:33N 40°23' W 073°17'1515.2
2015-Aug-20 23:33N 40°25' W 073°36'1313.1
2015-Aug-20 22:33N 40°28' W 073°53'1413.6
2015-Aug-20 21:34N 40°39' W 074°03'7 6.9
2015-Aug-20 20:31N 40°46' W 073°60'0 0.0
2015-Aug-20 19:31N 40°46' W 073°60'0 0.0
2015-Aug-20 18:30N 40°46' W 073°60'0 0.0
2015-Aug-20 17:33N 40°46' W 073°60'0 0.0
2015-Aug-20 16:33N 40°46' W 073°60'0 0.0
2015-Aug-20 15:32N 40°46' W 073°60'0 0.0
2015-Aug-20 14:32N 40°46' W 073°60'0 0.0
2015-Aug-20 13:28N 40°46' W 073°60'0 0.0
2015-Aug-20 12:31N 40°46' W 073°60'0 0.0
2015-Aug-20 11:33N 40°46' W 073°60'1 1.0
2015-Aug-20 10:33N 40°45' W 074°01'1010.2
2015-Aug-20 09:34N 40°35' W 074°02'1312.6
2015-Aug-20 08:34N 40°27' W 073°49'1211.7
2015-Aug-20 07:33N 40°16' W 073°46'1312.6
2015-Aug-20 06:34N 40°03' W 073°44'1212.3
2015-Aug-20 05:33N 39°51' W 073°42'10 9.8
2015-Aug-20 04:33N 39°41' W 073°40'1010.0
2015-Aug-20 03:33N 39°31' W 073°39'9 9.3
2015-Aug-20 02:33N 39°22' W 073°37'1414.1
2015-Aug-20 01:34N 39°08' W 073°34'1616.2
2015-Aug-20 00:33N 38°52' W 073°31'1616.0
2015-Aug-19 23:34N 38°36' W 073°31'1716.4
2015-Aug-19 22:33N 38°20' W 073°28'2216.1
2015-Aug-19 21:11N 37°58' W 073°25'  
Track history (hours):
 
Tides and Currents Weather Stations Pressure Air Temp Water Temp Dewpoint Dewpoint Depression Visibility Wind Speed Wind Dir Waves Ship Positions

Carnival Splendor

Last reported at 2015-Aug-28 16:27 UTC. Time now 2015-Aug-28 17:12 UTC.
Position N 40°45' W 068°20'.

Length 289 m; draft 8.3 m.

Type: Ship. MMSI: 372808000.

Date/timePositionNaut miles runAvg speedWind from/ knotsBaromVisibWave heightAir tempDewpointWater temp
2015-Aug-28 16:27N 40°45' W 068°20'30518.1
2015-Aug-27 23:33N 44°21' W 063°28'1514.6
2015-Aug-27 22:33N 44°35' W 063°32'3 3.2
2015-Aug-27 21:32N 44°38' W 063°34'0 0.0
2015-Aug-27 20:26N 44°38' W 063°34'0 0.0
2015-Aug-27 19:31N 44°38' W 063°34'0 0.0
2015-Aug-27 18:28N 44°38' W 063°34'0 0.0
2015-Aug-27 17:33N 44°38' W 063°34'0 0.0
2015-Aug-27 16:30N 44°38' W 063°34'0 0.0
2015-Aug-27 15:33N 44°38' W 063°34'0 0.0
2015-Aug-27 14:33N 44°38' W 063°34'0 0.0
2015-Aug-27 13:33N 44°38' W 063°34'1 0.7
2015-Aug-27 12:33N 44°38' W 063°33'10 9.9
2015-Aug-27 11:33N 44°29' W 063°28'1413.8
2015-Aug-27 10:33N 44°15' W 063°32'251 6.1
2015-Aug-25 17:27N 41°14' W 067°28'1415.1
2015-Aug-25 16:33N 41°06' W 067°43'1815.4
2015-Aug-25 15:22N 40°55' W 068°02'1615.8
2015-Aug-25 14:20N 40°46' W 068°20'1215.9
2015-Aug-25 13:33N 40°39' W 068°33'1716.5
2015-Aug-25 12:33N 40°33' W 068°54'1616.5
2015-Aug-25 11:33N 40°27' W 069°14'1616.5
2015-Aug-25 10:33N 40°26' W 069°35'1616.2
2015-Aug-25 09:33N 40°25' W 069°57'1615.9
2015-Aug-25 08:33N 40°25' W 070°18'1615.8
2015-Aug-25 07:33N 40°25' W 070°38'1616.0
2015-Aug-25 06:34N 40°24' W 070°59'1616.3
2015-Aug-25 05:33N 40°24' W 071°21'1616.3
2015-Aug-25 04:34N 40°23' W 071°42'1616.1
2015-Aug-25 03:34N 40°23' W 072°03'1616.2
2015-Aug-25 02:33N 40°23' W 072°24'1616.2
2015-Aug-25 01:33N 40°22' W 072°46'1615.9
2015-Aug-25 00:33N 40°22' W 073°07'1616.0
2015-Aug-24 23:34N 40°24' W 073°27'1615.5
2015-Aug-24 22:33N 40°27' W 073°47'1313.1
2015-Aug-24 21:34N 40°34' W 074°02'1212.0
2015-Aug-24 20:33N 40°46' W 074°01'1 0.6
2015-Aug-24 19:31N 40°46' W 073°60'0 0.0
2015-Aug-24 18:31N 40°46' W 073°60'0 0.0
2015-Aug-24 17:33N 40°46' W 073°60'0 0.0
2015-Aug-24 16:33N 40°46' W 073°60'0 0.0
2015-Aug-24 15:32N 40°46' W 073°60'0 0.0
2015-Aug-24 14:32N 40°46' W 073°60'0 0.0
2015-Aug-24 13:32N 40°46' W 073°60'0 0.0
2015-Aug-24 12:32N 40°46' W 073°60'0 0.0
2015-Aug-24 11:31N 40°46' W 073°60'1 1.1
2015-Aug-24 10:33N 40°45' W 074°01'1010.1
2015-Aug-24 09:33N 40°35' W 074°02'1313.2
2015-Aug-24 08:33N 40°27' W 073°48'1312.2
2015-Aug-24 07:30N 40°28' W 073°32'2215.5
2015-Aug-24 06:07N 40°30' W 073°03'915.9
2015-Aug-24 05:32N 40°30' W 072°51'1717.3
2015-Aug-24 04:33N 40°30' W 072°29'1919.0
2015-Aug-24 03:33N 40°31' W 072°04'1919.1
2015-Aug-24 02:34N 40°31' W 071°39'1919.1
2015-Aug-24 01:33N 40°32' W 071°14'1919.1
2015-Aug-24 00:33N 40°32' W 070°49'1919.1
2015-Aug-23 23:33N 40°33' W 070°24'1918.6
2015-Aug-23 22:32N 40°33' W 069°58'1918.5
2015-Aug-23 21:29N 40°34' W 069°33'1616.7
2015-Aug-23 20:31N 40°35' W 069°12'1515.5
2015-Aug-23 19:32N 40°37' W 068°52'1616.0
2015-Aug-23 18:33N 40°40' W 068°31'1715.7
2015-Aug-23 17:27N 40°50' W 068°13'39 0.8
2015-Aug-21 18:12N 41°12' W 067°31'1016.1
2015-Aug-21 17:33N 41°06' W 067°42'1615.9
2015-Aug-21 16:34N 40°57' W 067°59'1715.7
2015-Aug-21 15:27N 40°47' W 068°18'1415.2
2015-Aug-21 14:34N 40°39' W 068°32'1615.1
2015-Aug-21 13:31N 40°33' W 068°52'1515.4
2015-Aug-21 12:33N 40°28' W 069°10'1515.5
2015-Aug-21 11:34N 40°26' W 069°30'1615.7
2015-Aug-21 10:33N 40°25' W 069°51'1615.8
2015-Aug-21 09:33N 40°25' W 070°11'1615.9
2015-Aug-21 08:33N 40°25' W 070°32'1615.6
2015-Aug-21 07:33N 40°24' W 070°53'1616.0
2015-Aug-21 06:33N 40°24' W 071°14'1615.8
2015-Aug-21 05:33N 40°24' W 071°34'1615.7
2015-Aug-21 04:34N 40°24' W 071°55'1615.7
2015-Aug-21 03:33N 40°23' W 072°16'1615.8
2015-Aug-21 02:33N 40°22' W 072°36'1515.5
2015-Aug-21 01:33N 40°22' W 072°57'1515.2
2015-Aug-21 00:33N 40°23' W 073°17'1515.2
2015-Aug-20 23:33N 40°25' W 073°36'1313.1
2015-Aug-20 22:33N 40°28' W 073°53'1413.6
2015-Aug-20 21:34N 40°39' W 074°03'7 6.9
2015-Aug-20 20:31N 40°46' W 073°60'0 0.0
2015-Aug-20 19:31N 40°46' W 073°60'0 0.0
2015-Aug-20 18:30N 40°46' W 073°60'0 0.0
2015-Aug-20 17:33N 40°46' W 073°60'0 0.0
2015-Aug-20 16:33N 40°46' W 073°60'0 0.0
2015-Aug-20 15:32N 40°46' W 073°60'0 0.0
2015-Aug-20 14:32N 40°46' W 073°60'0 0.0
2015-Aug-20 13:28N 40°46' W 073°60'0 0.0
2015-Aug-20 12:31N 40°46' W 073°60'0 0.0
2015-Aug-20 11:33N 40°46' W 073°60'1 1.0
2015-Aug-20 10:33N 40°45' W 074°01'1010.2
2015-Aug-20 09:34N 40°35' W 074°02'1312.6
2015-Aug-20 08:34N 40°27' W 073°49'1211.7
2015-Aug-20 07:33N 40°16' W 073°46'1312.6
2015-Aug-20 06:34N 40°03' W 073°44'1212.3
2015-Aug-20 05:33N 39°51' W 073°42'10 9.8
2015-Aug-20 04:33N 39°41' W 073°40'1010.0
2015-Aug-20 03:33N 39°31' W 073°39'9 9.3
2015-Aug-20 02:33N 39°22' W 073°37'1414.1
2015-Aug-20 01:34N 39°08' W 073°34'1616.2
2015-Aug-20 00:33N 38°52' W 073°31'1616.0
2015-Aug-19 23:34N 38°36' W 073°31'1716.4
2015-Aug-19 22:33N 38°20' W 073°28'2216.1
2015-Aug-19 21:11N 37°58' W 073°25'  

Dump ship's entire track history